Miscellaneous Local Product
Issued by NWS Hastings, NE

Home | Current Version | Previous Version | Graphics & Text | Print | Product List | Glossary On
Versions: 1 2 3 4 5 6 7 8 9 10 11 12 13 14 15 16 17 18 19 20 21 22 23 24 25 26 27 28 29 30 31 32 33 34 35 36 37 38 39 40 41 42 43 44 45 46 47 48 49 50
000
AXUS43 KGID 022102
MISGRI

GID CWA HOURLY WEATHER ROUNDUP
NATIONAL WEATHER SERVICE HASTINGS NE
300 PM CST MON MAR 02 2015

NOTE: "FAIR" INDICATES FEW OR NO CLOUDS BELOW 12,000 FEET WITH NO
SIGNIFICANT WEATHER AND/OR OBSTRUCTIONS TO VISIBILITY.

...SOUTH CENTRAL NEBRASKA...

CITY           SKY/WX    TMP DP  RH WIND       PRES   REMARKS
GRAND ISLAND   PTSUNNY   43  16  33 S22G33    30.09F
HASTINGS       MOSUNNY   41  14  33 S23G37    30.08F
KEARNEY        MOSUNNY   41  14  33 S31G38    30.06F
ORD            CLOUDY    39  14  36 S24G37    30.02F WCI  28
YORK           PTSUNNY   39  18  41 S18G28    30.14F WCI  30
AURORA         CLOUDY    42  16  34 S22G30    30.11F
LEXINGTON      CLOUDY    40  18  40 S26G33    30.02F WCI  29
HOLDREGE       MOSUNNY   37  14  39 S30G38    30.06F WCI  24
HEBRON         MOSUNNY   41  16  36 S17G30    30.17F

...NEBRASKA PANHANDLE...

CITY           SKY/WX    TMP DP  RH WIND       PRES   REMARKS
CHADRON        CLOUDY    44  26  49 SW14      29.77F
ALLIANCE       PTSUNNY   41  22  46 S18G28    29.79F
SCOTTSBLUFF    MOSUNNY   46  24  42 SE12G20   29.75F
SIDNEY         CLOUDY    36  24  62 S17       29.80F WCI  26

...WESTERN AND NORTH CENTRAL NEBRASKA...

CITY           SKY/WX    TMP DP  RH WIND       PRES   REMARKS
VALENTINE      PTSUNNY   40  10  29 S24G33    29.88F WCI  29
AINSWORTH      PTSUNNY   40  13  32 S29G37    29.94F WCI  29
ONEILL         CLOUDY    40  16  37 S23G33    30.03F WCI  30
BROKEN BOW     CLOUDY    38  15  39 S26G40    29.98F WCI  26
IMPERIAL         N/A     32  20  61 S22G30    29.91F WCI  19
NORTH PLATTE   PTSUNNY   37  19  48 S23G31    29.93F WCI  26
MCCOOK         CLOUDY    39  20  46 S22G30    29.98F WCI  29

...EASTERN NEBRASKA...

CITY           SKY/WX    TMP DP  RH WIND       PRES   REMARKS
NORFOLK        CLOUDY    40  19  43 S21G31    30.11F WCI  30
SO SIOUX CITY  CLOUDY    34  20  56 S15       30.21F WCI  24
TEKAMAH        CLOUDY    39  21  48 SE15      30.21F WCI  31
COLUMBUS       CLOUDY    41  18  38 S21G26    30.15F
ALBION         CLOUDY    40  15  36 S22G29    30.10F WCI  30
OMAHA EPPLEY   PTSUNNY   40  19  43 S17G26    30.22F WCI  31
OFFUTT AFB     CLOUDY    40  20  43 SE15      30.21F WCI  32
MILLARD        CLOUDY    42  20  42 S15       30.22F
LINCOLN        CLOUDY    42  19  39 S21G26    30.19F
NEBRASKA CITY  CLOUDY    40  14  33 S14G21    30.25F WCI  33
BEATRICE       MOSUNNY   40  19  42 S16G23    30.21F WCI  32
FALLS CITY     PTSUNNY   43  19  38 SE15      30.24F

...NORTHERN KANSAS...

CITY           SKY/WX    TMP DP  RH WIND       PRES   REMARKS
GOODLAND       CLOUDY    30  25  81 S22       29.91F WCI  17
HILL CITY      PTSUNNY   35  20  54 S17G28    30.06F WCI  25
NORTON         CLEAR     37  16  41 SE18G25   30.02F WCI  27
PHILLIPSBURG   SUNNY     39  21  48 S24       30.09F WCI  28
SMITH CENTER   SUNNY     36  18  48 SE24G31   30.13F WCI  24
BELOIT         SUNNY     37  18  44 S17G23    30.16F WCI  28
HAYS           CLOUDY    34  16  47 S22G28    30.10F WCI  22
RUSSELL        CLOUDY    35  18  49 S18G25    30.11F WCI  24
CONCORDIA      PTSUNNY   38  19  46 SE20      30.17F WCI  28
SALINA         CLOUDY    37  18  46 SE15      30.21F WCI  28
TOPEKA         CLOUDY    39  17  41 SE15G22   30.28F WCI  31



USA.gov is the U.S. government's official web portal to all federal, state and local government web resources and services.